Погода в Бабино-2

Россия / Санкт-Петербург и Ленинградская область     59°12′05″N   31°26′46″E
темп.,
°C
ветер,
м/с
пор.,
м/с
влажн.,
%
обл.,
%
осадки,
мм/ч
давл.,
гПа
погр.,
м
26 июля, пн
пн2600:00+14юз117024 0.0 102012
03:00+13зюз12787 0.0 102012
06:00+14юз237611 0.0 102060
09:00+21зюз23525 0.0 1021430
12:00+26з22391 0.0 10211586
15:00+28зюз133469 0.0 10202558
18:00+27юв113832 0.0 10191368
21:00+21зюз226018 0.0 101914
27 июля, вт
вт2700:00+17зюз017257 0.0 102011
03:00+16ю11770 0.0 102111
06:00+16ююз11771 0.0 102122
09:00+23ююз12536 0.0 1021353
12:00+28ю11375 0.0 10201431
15:00+29юв22315 0.0 10182549
18:00+29вюв123444 0.0 10172534
21:00+21юв126111 0.0 101611
28 июля, ср
ср2800:00+19вюв22649 0.0 101623
03:00+17юв226937 0.0 101419
06:00+17вюв237297 0.0 101359
09:00+23юв3555100 0.0 1011364
12:00+26ююв3549100 0.0 10101075
15:00+24ю4662100 0.1 1009886
18:00+19юв2695100 0.5 1007264
21:00+18ю119996 1.8 100641
29 июля, чт
чт2900:00+17ююз2399100 0.4 100581
03:00+16юз289925 0.5 1005212
06:00+16юз279894 0.0 1004235
09:00+20юз4780100 0.0 1003518
12:00+24юз585229 0.0 10031639
15:00+23юз5953100 0.0 10021354
18:00+23зюз613645 0.3 10011540
21:00+18зюз26835 0.8 1001125
30 июля, пт
пт3000:00+17юз411830 0.0 1002769
03:00+16зюз412800 0.0 1002778
06:00+15юз512815 0.0 1002718
09:00+19зюз610645 0.0 10021082
12:00+22зюз7105277 0.1 10021794
15:00+22юз61051100 0.2 10032114
18:00+23юз694753 0.0 10021696
21:00+21юз4105588 0.0 1002913